Temp
11 10 10 9 9 9 9 9 9 8 8 9 9 9 8 8 8 8 8 8 8 8 8 8 8 8 10 13 14 11 11 10 10 9 10 12 15 17 18 19 15 19 21 22 18 22 24
12 11 10 9 9 9 9 9 9 8 8 9 9 8 8 8 8 8 8 8 8 8 8 8 8 8 11 12 12 11 11 10 9 9 10 11 15 19 20 20 18 18 17 20 17 21 23
12 11 11 10 9 9 9 9 8 8 8 8 9 8 8 8 8 8 8 8 8 8 8 8 8 9 11 12 11 10 10 10 9 9 10 10 11 16 20 20 20 17 16 16 18 17 22
12 12 11 10 9 9 9 8 8 8 8 8 8 8 8 7 8 7 7 8 8 8 8 8 8 10 11 11 11 11 11 10 9 9 9 9 10 15 20 20 19 15 15 14 16 20 22
13 12 12 10 9 9 9 8 8 8 8 8 8 8 8 7 8 7 7 7 8 8 8 8 9 10 12 10 11 10 10 12 9 9 9 9 11 17 18 18 17 17 15 15 17 16 20
14 13 12 11 10 9 8 8 8 8 8 8 8 8 7 7 7 7 7 8 8 8 9 9 10 9 11 9 7 8 10 10 11 10 10 10 13 16 18 18 17 18 18 18 19 16 19
14 13 12 12 11 9 9 8 8 8 8 8 8 7 7 7 7 7 7 10 12 12 11 12 12 12 12 6 6 8 10 11 11 10 9 10 11 14 19 20 22 21 21 21 21 20 20
14 13 12 12 11 10 9 8 8 8 8 7 7 7 7 7 7 7 7 11 11 10 12 13 13 12 11 7 8 9 10 12 12 10 10 11 13 17 20 20 20 21 21 21 21 20 20
14 14 13 12 11 9 9 8 8 7 7 7 7 7 7 7 7 7 9 11 9 9 12 13 12 12 10 10 11 11 12 13 11 10 10 11 15 17 18 18 19 20 20 20 20 20 20
15 14 13 12 11 10 10 8 7 7 7 7 7 6 7 7 7 9 10 9 8 9 11 12 12 12 12 12 11 10 11 12 12 12 13 12 16 17 18 18 20 19 21 20 20 19 19
14 13 13 12 11 11 10 8 7 7 7 7 6 6 7 7 9 10 9 8 8 10 13 12 13 12 13 11 11 12 13 15 14 13 12 12 15 17 17 18 20 18 19 19 19 19 21
14 13 13 13 11 11 10 8 8 7 7 6 6 6 7 7 8 9 8 8 9 10 12 11 13 13 13 13 13 13 14 14 14 14 13 14 14 16 17 18 18 18 18 18 19 19 17
13 13 13 12 11 11 10 9 8 7 6 6 6 6 7 7 10 8 8 11 10 13 12 12 14 14 13 12 12 13 13 13 14 11 11 13 13 15 16 17 17 19 18 16 16 16 17
13 13 13 12 11 11 10 9 9 7 6 6 6 6 7 7 8 8 9 11 12 12 13 14 14 13 11 13 13 12 14 14 13 11 12 12 12 15 14 17 17 18 19 18 16 18 19
13 13 12 12 11 11 10 9 9 7 6 6 6 8 8 8 7 7 11 11 12 13 15 15 14 12 13 13 13 11 13 15 15 12 14 15 12 13 13 15 16 18 16 18 17 18 18
13 13 12 12 11 11 10 9 9 7 6 7 9 10 9 7 7 8 10 11 12 14 15 16 15 15 13 14 13 11 13 15 15 15 16 16 13 13 12 15 16 17 19 16 16 15 17
9 13 12 11 11 10 9 9 8 7 7 7 9 10 8 7 7 9 10 11 13 14 14 15 16 16 16 15 14 14 13 13 16 15 16 17 16 13 14 15 16 16 16 17 18 17 17
9 12 12 9 10 9 9 9 8 7 7 7 11 10 7 7 9 11 12 13 12 14 14 15 15 16 17 16 15 15 13 14 16 15 15 16 14 12 14 15 15 16 17 18 16 16 17
8 13 11 9 9 8 9 9 8 7 8 9 12 9 7 7 10 11 13 13 13 14 15 15 15 16 16 16 15 15 13 14 15 15 16 16 15 12 12 14 15 15 17 17 18 17 14
8 12 9 9 7 7 9 9 8 8 8 8 12 9 8 8 11 12 12 14 14 14 15 15 15 16 16 16 16 15 14 13 14 15 13 15 16 16 16 16 17 15 16 17 16 13 16
7 12 9 9 7 7 9 9 8 8 8 8 12 13 12 9 10 11 13 14 14 14 14 15 15 15 16 15 15 15 14 13 14 13 14 15 14 12 15 15 15 14 16 16 15 15 15
7 10 8 8 6 7 9 8 8 8 8 9 12 12 11 13 12 12 12 14 14 14 15 14 15 15 15 15 16 15 15 15 15 13 14 15 12 12 12 13 14 13 15 16 16 16 16
7 8 8 7 6 6 8 8 8 8 7 10 7 8 13 11 12 13 14 15 14 14 13 15 15 15 15 14 14 15 16 16 16 15 14 14 13 12 13 13 13 13 15 15 15 16 16
9 8 8 6 6 6 7 8 8 8 8 9 9 11 13 13 13 13 12 13 13 13 14 13 14 14 12 13 14 15 15 15 16 15 15 14 13 13 12 12 13 14 15 15 16 16 16
5 7 7 5 5 6 7 7 8 8 7 7 6 10 13 13 13 11 11 12 12 12 13 13 12 12 12 13 14 14 14 14 14 14 14 15 14 13 13 14 16 16 13 14 14 15 16
6 7 6 5 5 6 6 7 8 7 7 6 5 7 11 12 11 11 11 11 13 13 12 11 11 11 13 14 14 13 13 15 13 13 13 14 15 14 13 13 14 16 15 15 15 14 15
8 6 5 5 5 5 6 7 7 7 7 6 5 7 10 9 7 9 11 11 9 11 13 11 10 11 11 13 13 14 14 15 14 13 12 12 13 13 13 13 15 16 15 15 13 13 15
7 6 5 5 5 5 6 7 7 6 6 7 3 6 8 8 5 7 7 9 8 9 13 9 10 10 9 11 12 14 14 15 14 15 14 13 12 12 13 12 12 14 13 14 14 14 14
6 6 5 5 5 5 5 6 6 6 6 6 5 4 6 8 5 4 4 4 5 5 9 8 7 6 6 8 11 13 14 14 15 14 13 14 14 13 14 13 14 14 14 13 13 13 12
Height
845 843 840 837 837 835 835 832 828 824 823 820 817 813 811 809 807 804 801 800 798 795 793 790 788 786 782 775 770 773 773 771 771 772 775 773 768 763 759 759 773 765 762 761 785 770 767
841 841 839 835 833 834 832 832 826 822 821 818 815 812 809 807 805 802 800 799 797 794 792 789 788 786 783 775 773 774 773 773 771 773 773 774 766 756 751 754 766 769 775 771 789 774 769
837 835 836 833 831 830 830 828 825 821 819 816 813 810 808 805 802 800 798 797 794 793 791 788 786 785 782 775 775 775 774 774 776 777 777 776 772 765 750 754 759 770 782 787 781 790 769
832 831 831 831 829 826 826 826 822 819 817 814 810 808 805 802 800 798 795 794 792 791 788 785 785 784 776 777 776 775 776 777 774 774 778 777 776 766 750 754 763 782 788 804 795 767 771
827 826 826 826 824 823 823 821 820 816 815 812 808 806 803 800 797 795 793 790 789 788 786 786 785 782 773 776 776 776 777 775 778 778 781 777 774 758 757 762 773 771 787 795 789 786 777
819 822 821 821 821 819 819 818 816 815 812 809 806 803 801 798 795 792 790 788 787 786 785 784 784 785 777 777 777 779 777 776 776 779 779 777 770 764 760 759 769 766 776 779 777 791 783
817 817 815 817 815 816 814 815 812 812 810 807 804 801 798 795 792 790 789 787 787 784 782 777 775 773 769 775 776 776 778 779 778 780 782 781 774 766 750 748 743 750 760 760 768 770 780
813 811 810 812 812 811 812 810 809 808 806 804 801 798 795 793 790 789 788 785 785 787 776 774 775 772 771 772 774 774 777 773 773 775 782 780 770 755 747 747 755 748 761 760 764 767 774
808 805 804 806 806 806 807 807 805 804 802 801 799 795 792 790 788 788 786 786 786 786 777 772 773 772 776 772 768 770 771 766 773 777 781 780 768 758 756 760 760 756 765 767 772 771 775
801 799 798 799 801 801 803 802 802 801 798 797 796 792 789 788 789 785 785 786 787 787 778 772 770 773 771 769 772 775 773 773 775 773 772 779 767 764 762 764 758 769 759 763 770 776 783
795 792 792 793 795 795 797 798 798 797 795 794 792 789 787 786 786 785 787 786 787 786 760 773 769 773 771 773 777 772 769 765 769 776 781 782 771 767 766 764 760 769 768 770 775 776 769
786 786 784 786 788 791 792 793 794 793 792 790 788 785 784 785 787 786 786 786 787 784 768 778 769 769 769 768 772 773 772 772 773 775 781 778 778 772 768 768 768 770 773 777 778 776 793
778 778 776 779 782 784 786 788 789 789 788 787 785 782 784 785 784 785 786 784 784 761 776 773 766 766 769 773 775 774 770 772 771 791 792 783 783 780 777 777 776 770 775 792 797 801 789
769 770 768 771 775 778 781 783 784 785 785 784 784 784 784 784 786 786 786 780 767 767 765 764 763 771 778 774 775 777 771 771 777 786 785 786 792 782 783 773 778 775 769 779 792 785 777
759 760 763 763 767 771 775 777 779 782 782 782 783 785 785 785 786 786 783 774 763 761 756 761 765 773 769 774 774 781 774 767 768 783 775 774 788 789 789 783 780 774 783 779 783 778 781
751 751 752 755 759 764 769 772 774 777 778 780 782 783 783 784 786 787 782 769 766 762 759 757 754 757 765 763 771 779 771 767 767 771 768 766 787 790 793 787 780 777 770 788 791 796 782
738 741 743 747 751 757 763 766 769 773 775 777 781 779 784 785 787 784 776 768 761 761 760 758 751 750 752 760 767 769 775 776 767 772 770 765 771 790 787 784 778 783 785 781 778 780 782
731 729 735 740 742 750 757 761 764 768 772 776 776 777 784 786 784 774 768 764 765 759 761 759 756 753 750 754 762 760 774 772 766 769 772 769 777 791 783 780 781 781 776 776 784 789 781
721 720 727 732 736 744 751 756 759 763 768 771 768 778 784 785 777 772 763 762 761 760 757 758 757 756 754 754 761 761 771 773 771 770 769 769 774 791 797 789 782 782 774 775 774 781 793
716 713 719 724 731 739 746 750 754 758 764 768 767 775 782 784 773 766 762 756 759 761 758 758 756 754 754 755 755 763 767 774 772 771 775 771 767 768 766 764 763 777 773 772 777 797 782
715 704 711 717 726 734 740 745 749 754 759 766 761 756 760 773 769 767 761 755 755 759 759 758 758 757 755 757 757 760 765 772 774 778 774 771 776 783 771 771 772 775 772 771 778 778 784
703 701 705 711 720 730 735 740 745 750 756 761 755 756 764 755 759 762 762 755 754 757 756 758 758 756 755 756 756 759 761 764 766 774 771 772 782 782 784 779 779 779 772 768 768 768 771
693 696 700 706 714 726 730 735 741 745 752 754 758 757 751 758 757 757 749 749 753 756 761 758 757 756 758 763 764 763 759 759 760 766 769 772 779 784 780 781 781 779 767 764 766 763 765
696 694 692 703 708 721 725 731 735 740 745 748 750 752 748 748 752 751 756 756 758 760 757 762 760 759 771 770 768 763 763 764 764 767 766 770 775 778 781 785 780 765 764 764 763 762 762
697 696 684 698 705 716 722 727 731 736 742 746 747 749 743 744 747 761 761 757 763 763 762 764 769 772 771 769 764 765 766 769 770 770 770 767 771 778 778 771 755 757 768 767 766 762 761
681 686 689 695 702 711 719 724 729 734 739 745 747 747 747 747 755 758 761 761 757 757 764 769 774 774 772 766 763 766 765 758 767 774 775 773 768 773 775 775 768 754 763 764 765 765 764
671 681 687 695 702 709 716 722 727 732 737 742 744 746 748 755 772 768 760 763 770 765 756 768 774 774 775 766 765 759 759 759 763 764 775 778 775 775 776 773 760 757 765 767 770 773 766
681 680 685 694 700 709 716 722 726 732 736 739 745 747 749 759 775 775 775 771 774 771 758 777 774 777 781 775 767 760 758 758 762 758 764 769 772 772 771 777 775 764 770 769 770 766 768
686 679 685 693 698 708 715 721 725 731 735 738 745 749 751 758 776 780 782 782 782 782 776 779 781 786 790 786 774 763 761 761 756 758 766 766 763 765 762 770 766 766 767 772 773 773 773
Wind_Speed
17 14 13 11 12 11 11 11 11 13 14 15 15 15 15 16 14 12 11 11 12 12 11 11 11 14 10 6 5 4 8 7 9 8 6 5 16 20 22 18 15 13 21 12 13 13 13
16 17 16 13 11 12 11 13 13 14 14 14 16 15 16 16 15 13 11 12 12 13 12 13 12 12 9 8 4 5 7 3 5 3 3 4 10 20 16 15 20 7 1 9 14 15 14
22 19 18 15 13 11 12 12 14 14 14 15 16 16 15 17 16 14 12 12 13 13 12 12 7 7 9 8 3 5 7 2 8 11 3 5 15 13 14 15 13 15 7 7 10 20 10
26 21 19 16 14 12 12 13 15 14 14 15 16 16 15 16 18 14 14 13 14 14 11 7 6 4 6 4 5 5 6 2 4 7 11 10 14 14 10 7 13 12 7 9 14 13 4
33 24 21 18 16 13 12 13 15 15 15 15 17 17 17 17 18 15 14 15 15 14 8 6 6 5 5 7 6 5 3 6 10 7 7 12 10 5 5 16 12 17 8 18 5 9 4
31 25 24 22 17 14 12 13 14 14 14 15 17 16 16 18 17 14 14 14 12 8 5 6 8 7 4 3 9 5 1 3 6 10 5 3 2 7 13 15 15 14 12 19 14 13 17
19 25 26 24 17 15 13 14 13 14 15 17 16 16 17 16 15 13 11 5 4 5 6 4 8 8 10 3 3 7 7 7 7 4 1 3 2 13 20 20 12 17 18 19 18 15 17
31 26 28 26 19 15 14 14 13 14 14 16 15 16 16 14 11 10 6 4 3 3 5 3 6 7 8 2 3 4 7 10 9 5 8 3 5 15 13 10 6 16 16 11 6 12 10
32 28 28 27 19 15 14 14 13 13 13 14 14 14 15 14 9 5 5 2 1 4 4 2 4 6 2 7 6 9 5 8 10 8 12 2 6 11 12 10 10 11 14 13 11 8 14
34 29 30 30 20 15 14 14 13 13 11 13 14 14 12 8 4 2 3 3 2 3 2 5 2 3 3 1 5 2 1 6 2 10 9 4 10 11 13 12 13 13 10 8 8 13 8
36 36 31 31 20 15 15 14 12 12 10 13 13 13 9 6 4 2 2 3 2 4 1 3 3 3 2 7 2 5 4 3 6 9 4 3 9 14 12 9 8 5 5 9 8 9 5
35 31 36 28 21 17 14 13 12 10 9 11 14 10 4 3 4 1 4 2 3 3 2 1 1 2 4 8 3 3 2 7 4 7 6 4 6 2 7 8 4 9 10 6 5 5 5
38 32 40 29 23 18 15 13 11 8 7 9 10 2 8 4 1 4 3 3 2 3 1 3 4 3 5 4 3 1 4 7 4 6 2 5 3 4 3 8 6 10 15 5 5 3 5
40 33 42 31 24 19 16 13 10 8 4 7 4 6 5 1 3 3 3 2 3 2 3 3 5 7 3 2 3 1 8 6 5 6 3 3 4 8 2 8 5 10 13 4 6 6 9
37 33 41 32 26 21 18 14 9 6 4 3 9 4 4 3 4 0 2 2 2 2 4 9 7 3 3 5 2 2 2 5 5 9 1 5 4 3 1 4 4 7 5 4 3 3 2
38 34 40 36 29 23 19 15 9 7 5 6 7 6 4 5 4 3 2 3 1 1 2 5 3 3 4 7 5 4 4 5 8 8 4 2 5 1 2 4 1 3 6 3 1 2 4
37 35 39 40 31 25 21 15 11 8 6 13 8 3 3 5 3 3 2 2 1 4 2 2 2 5 5 5 6 5 6 2 5 9 4 6 4 5 5 7 10 4 3 5 3 2 3
41 37 43 41 32 26 22 17 13 10 9 16 5 2 5 4 3 1 2 2 1 5 4 2 2 3 3 7 4 3 6 4 5 8 5 1 5 3 11 2 4 7 12 11 7 4 4
49 39 45 41 33 28 24 19 16 15 18 10 3 3 3 2 2 3 3 3 2 4 4 3 2 1 1 5 3 5 6 3 5 5 8 6 6 5 3 4 5 6 11 10 12 4 5
44 39 46 40 34 29 26 21 18 17 19 6 5 3 2 2 5 4 4 6 6 2 3 1 1 3 5 5 1 6 6 4 3 3 5 3 4 4 4 3 3 11 16 17 13 3 9
42 43 48 41 34 30 26 22 20 17 22 8 4 3 5 4 6 9 4 3 7 6 3 3 3 4 3 4 4 5 5 10 6 6 5 4 3 1 1 3 2 3 10 16 16 17 13
42 45 47 41 34 31 27 23 20 18 27 6 4 4 3 3 3 11 6 8 8 5 5 5 2 3 3 1 3 7 7 7 5 7 5 3 1 1 1 1 3 7 9 11 16 18 19
37 51 47 41 35 32 27 25 21 25 27 6 3 1 3 6 8 8 9 7 7 5 3 5 2 3 4 4 4 4 3 2 3 7 9 6 5 4 3 2 4 8 13 14 11 14 11
25 45 47 40 37 30 27 26 23 28 22 4 5 5 3 5 8 9 5 5 6 3 3 5 1 3 3 3 1 4 4 3 5 3 5 6 6 3 1 2 4 3 2 2 6 9 9
42 33 49 40 37 31 28 26 21 27 30 5 7 4 3 4 7 4 7 7 5 4 3 5 5 3 2 3 3 5 4 4 3 2 5 5 6 2 3 6 7 6 2 3 4 4 1
41 49 43 39 36 32 28 25 22 23 26 13 8 6 2 5 4 4 8 5 5 7 4 3 4 3 2 3 4 5 5 5 5 4 2 4 6 4 3 3 3 8 6 2 2 5 4
44 48 43 39 35 32 29 25 22 21 21 14 7 9 1 4 3 1 3 5 1 1 2 4 2 2 5 4 4 4 4 1 4 6 6 3 5 9 7 5 4 6 6 3 5 3 4
38 46 43 38 35 31 28 26 24 20 19 12 8 9 2 4 5 4 3 3 3 1 4 3 4 2 1 2 3 4 3 4 3 1 6 8 5 4 5 4 6 6 5 3 5 4 7
29 46 45 40 37 31 27 25 23 22 17 14 7 9 12 5 6 12 12 9 7 5 1 2 3 2 2 1 2 2 2 2 4 3 3 3 1 1 3 1 4 4 4 6 7 7 9
Wind_Direction
294 291 296 295 303 311 316 320 327 330 332 334 333 332 332 327 325 318 322 310 310 313 314 315 319 328 332 263 282 20 7 38 148 157 227 240 205 204 207 211 207 219 192 186 191 188 165
286 288 290 287 293 302 306 311 317 325 326 329 328 326 329 328 317 318 314 308 308 311 313 314 310 318 304 278 39 354 352 40 136 225 280 303 221 211 211 202 207 181 62 234 196 202 177
281 281 284 281 287 290 300 304 307 318 321 325 325 327 327 324 319 315 312 304 301 304 313 321 301 296 285 278 355 2 355 12 164 219 289 335 319 263 220 180 199 172 200 326 241 241 192
271 276 279 274 278 286 292 300 303 312 317 322 323 325 326 321 321 311 304 303 297 296 295 300 304 290 279 337 304 299 323 178 104 138 269 294 309 268 225 146 164 163 179 214 246 200 173
265 269 275 268 273 277 283 290 298 309 314 321 322 324 324 319 317 311 301 296 295 287 267 279 279 275 283 333 290 3 302 250 156 127 218 275 282 193 183 162 177 178 166 208 178 284 179
260 270 268 270 274 272 276 283 293 304 315 322 323 325 324 318 317 307 302 296 284 279 268 253 255 272 188 242 280 310 270 229 172 172 149 226 271 181 181 181 186 179 195 200 205 201 233
278 272 262 274 270 268 272 275 289 300 311 319 322 324 318 317 319 313 315 311 220 203 226 304 320 296 313 195 271 210 171 183 185 165 105 13 149 181 182 192 197 186 195 207 184 180 199
292 269 259 273 263 265 269 268 283 296 309 316 318 321 320 317 312 311 292 278 21 350 299 235 292 295 24 232 109 183 184 185 157 126 110 38 185 187 177 173 239 183 192 207 147 143 205
291 267 258 265 258 259 264 265 277 290 306 314 316 319 315 315 310 280 240 294 309 329 261 83 357 350 308 350 93 111 210 129 101 131 114 57 141 186 164 160 181 176 183 185 178 178 212
285 266 256 260 250 254 261 262 274 287 305 307 317 317 313 309 306 194 216 201 261 314 280 27 47 30 323 249 75 329 239 104 141 108 90 28 177 161 157 175 185 173 184 167 141 176 206
276 268 250 252 244 245 254 255 269 285 303 316 314 312 300 226 333 228 95 167 264 249 251 9 43 2 334 89 197 32 344 150 121 126 85 134 189 174 168 161 198 117 160 155 183 224 314
279 267 247 247 236 240 245 249 263 283 301 313 312 308 239 169 239 258 147 182 256 248 125 121 66 61 88 48 60 116 100 69 65 129 3 73 345 184 130 97 36 137 148 137 200 233 244
273 265 245 241 229 232 237 242 260 276 298 312 329 161 154 158 16 150 151 224 251 288 162 158 132 163 66 120 95 74 168 142 151 130 283 126 127 121 274 136 143 172 159 151 180 194 243
267 259 243 234 222 225 228 234 254 262 287 310 148 140 143 151 152 158 228 212 256 156 184 158 134 105 89 176 74 46 162 134 113 81 128 156 160 185 6 197 182 208 196 171 204 199 192
259 254 244 233 219 218 219 226 238 244 260 304 148 163 142 129 164 215 254 212 100 150 156 150 150 156 127 149 164 146 239 145 130 208 229 159 83 111 57 327 291 176 220 12 342 43 343
262 253 239 226 213 211 211 216 220 220 221 170 168 170 140 152 179 255 275 311 131 195 151 180 189 199 148 141 145 215 199 150 147 215 256 105 113 19 84 290 144 284 164 186 268 231 220
292 246 237 221 208 205 204 207 204 202 208 161 181 184 132 163 178 238 259 282 247 185 232 250 140 151 120 133 148 173 176 183 208 180 241 183 128 158 158 219 186 169 197 233 271 251 299
313 233 232 208 198 197 200 200 196 187 165 155 183 178 155 165 240 222 212 210 359 175 200 250 286 22 138 138 169 165 170 267 189 170 189 217 103 156 196 59 314 284 237 218 226 194 240
313 231 218 202 195 189 199 197 191 182 164 158 157 128 157 172 229 208 222 222 257 210 203 191 173 297 185 160 136 125 133 140 174 182 177 173 151 132 142 268 226 232 223 235 238 284 210
306 221 200 197 190 189 196 191 189 185 184 185 164 143 138 206 285 251 211 190 175 219 248 249 126 189 173 160 99 141 130 141 193 221 354 269 194 254 218 64 193 205 218 221 229 196 236
318 208 197 195 187 190 194 189 188 189 182 187 212 178 163 180 218 212 217 177 177 174 235 226 191 239 200 153 145 132 114 135 174 154 203 249 221 129 78 56 89 220 231 224 221 230 241
325 204 193 185 185 190 191 187 186 182 170 223 176 172 182 137 180 192 187 197 202 143 181 178 257 174 197 259 17 174 159 175 184 190 204 188 149 117 270 296 261 258 245 229 232 236 241
295 189 184 183 179 189 188 184 184 177 166 193 157 125 258 148 173 195 191 179 185 177 84 75 112 182 194 63 339 2 39 281 152 192 192 184 152 181 205 190 263 261 242 227 232 234 249
196 189 183 178 175 185 183 184 185 183 179 153 166 157 212 169 196 200 152 164 166 151 129 106 113 206 49 292 298 134 96 115 137 125 194 188 185 164 116 212 232 90 98 14 255 246 258
289 247 178 174 172 179 183 181 184 185 193 166 171 183 211 143 182 162 170 157 147 152 109 111 75 29 325 212 167 159 160 161 154 172 192 223 180 181 226 220 295 187 174 168 208 157 105
300 186 173 170 170 174 178 176 177 179 191 188 172 154 266 148 167 103 157 177 170 185 148 99 87 1 235 222 213 211 206 183 172 158 210 234 258 238 192 266 261 92 135 180 228 182 80
185 176 169 168 166 170 173 172 169 167 169 165 151 145 138 109 79 226 159 159 93 218 151 133 85 106 352 205 228 228 196 346 198 193 175 193 228 227 223 257 301 111 150 172 234 92 13
184 170 166 166 164 168 169 169 166 162 162 154 127 132 86 93 76 54 28 123 139 248 203 120 165 135 98 233 221 207 251 188 235 79 169 187 199 205 224 230 252 112 116 243 22 31 9
235 170 168 165 163 167 168 168 167 164 163 140 111 107 98 72 91 100 75 56 48 32 31 41 71 90 100 144 261 306 202 184 253 200 181 234 324 279 227 119 86 87 48 67 26 1 352